[[{"header":{"parameterUnit":"m.s-1","parameterCategory":1,"la1":30.2991,"la2":30.254,"lo1":-89.0895,"lo2":-89.0444,"dy":0.0017,"dx":0.0017,"nx":28,"ny":28,"refTime":"2024-08-08T03:00:00:Z","depth":0,"parameterNumber":2,"parameterNumberName":"U-component_of_WINDS"},"data":[0,0,0,0,0,0,0,0,0,0,0,0,0,0,0,0,0,0,0,0,0,0,0,0,0,0,0,0,0,0,0,0,0,0,0,0,0,0,0,0,0,0,0,0,0,0,0,0,0,0,0,0,0,0,0,0,0,0,2.8591,2.859,0,2.8555,2.8555,2.8554,2.8443,2.8441,2.8439,2.8436,2.8404,2.8405,2.8406,0,0,0,0,0,0,0,0,0,0,0,0,0,2.857,2.8571,2.8591,2.859,2.859,2.8555,2.8555,2.8554,2.8444,2.8441,2.8438,2.8435,2.8403,2.8405,2.8407,0,0,0,0,0,0,0,0,0,0,0,0,0,2.8561,2.8571,2.8591,2.8531,2.8525,2.8555,2.8555,2.8554,2.8445,2.8441,2.8437,2.8434,2.8403,2.8405,2.8407,2.8494,0,0,2.8413,2.8414,0,0,0,0,0,0,0,0,2.8562,2.8562,2.854,2.8535,2.8528,2.85,2.8535,2.8534,2.8445,2.8475,2.8436,2.8432,2.8439,2.8438,2.8439,2.8492,2.8491,2.8413,2.8415,2.8416,2.8416,0,0,0,0,0,0,0,2.8563,2.8563,2.8577,2.854,2.8533,2.8508,2.8502,2.8534,2.8478,2.8472,2.8464,2.8461,2.8435,2.8438,2.8438,2.849,2.8413,2.8415,2.8417,2.8417,2.8619,2.8622,0,0,0,0,0,0,2.8571,2.8564,2.8578,2.8576,2.8536,2.8511,2.8505,2.8513,2.8478,2.8469,2.8464,2.8456,2.8436,2.8435,2.8436,2.8539,2.8416,2.8418,2.8419,2.8615,2.8619,2.8624,0,0,0,0,0,0,2.8571,2.8573,2.8579,2.8568,2.8567,2.8515,2.8525,2.8514,2.8516,2.8472,2.8462,2.8477,2.8433,2.8433,2.8481,2.8536,2.8419,2.8421,2.861,2.8616,2.8622,2.8744,0,0,0,0,0,0,2.8571,2.8574,2.8605,2.8569,2.8568,2.8623,2.8528,2.8516,2.852,2.8509,2.8481,2.8472,2.843,2.8479,2.8483,2.8537,2.8422,2.8605,2.8613,2.862,2.8735,2.8754,2.877,0,0,0,0,0,2.8571,2.864,2.8607,2.8609,2.8605,2.8626,2.8626,2.8574,2.8525,2.8557,2.8529,2.8473,2.853,2.8484,2.8489,2.8544,2.8601,2.861,2.8619,2.8727,2.875,2.8769,0,0,0,0,0,0,2.8684,2.8634,2.8597,2.8656,2.8647,2.8608,2.8646,2.8599,2.8604,2.8593,2.8531,2.8525,2.8584,2.8568,2.8519,2.8629,2.8556,2.8567,2.8637,2.8658,2.8675,2.8679,2.8424,0,0,0,0,0,2.8715,2.8736,2.8692,2.8749,2.8746,2.8698,2.8705,2.8666,2.8654,2.865,2.8625,2.8616,2.8633,2.8644,2.8656,2.8732,2.8727,2.8773,2.879,2.8805,2.8815,2.8859,2.888,2.8654,2.8654,2.8654,0,0,2.8781,2.8757,2.8773,2.8771,2.8759,2.8784,2.8694,2.8723,2.8742,2.8654,2.8699,2.8681,2.8668,2.8732,2.8758,2.8721,2.8877,2.8816,2.8828,2.8831,2.8871,2.8892,2.8911,2.866,2.8659,2.8658,0,0,2.8915,2.8897,2.8945,2.8935,2.8918,2.8885,2.8897,2.8866,2.8851,2.8895,2.8831,2.8853,2.8881,2.8876,2.8877,2.9014,2.8965,2.9019,2.9111,2.9154,2.9172,2.9188,2.924,2.9259,2.9029,2.903,2.903,0,2.9,2.9032,2.8975,2.901,2.9013,2.8934,2.8984,2.8978,2.8966,2.8971,2.8929,2.8966,2.8951,2.9015,2.9049,2.9051,2.9065,2.9022,2.9174,2.9189,2.9203,2.9252,2.9272,2.9037,2.9036,2.9035,2.9035,0,2.914,2.9164,2.9205,2.9196,2.9203,2.9245,2.9198,2.9212,2.9175,2.9148,2.9197,2.9177,2.9185,2.9197,2.916,2.9258,2.9235,2.9184,2.911,2.9232,2.9278,2.9296,2.9047,2.9044,2.9042,2.904,0,0,2.9341,2.9303,2.9319,2.9316,2.9293,2.9312,2.9353,2.9361,2.9377,2.9373,2.9408,2.9435,2.939,2.9391,2.9353,2.9391,2.9506,2.9336,2.9335,2.9371,2.9618,2.9658,2.968,2.9473,2.9477,2.9479,2.962,0,2.9471,2.9536,2.9488,2.9563,2.9587,2.9515,2.9551,2.9543,2.9521,2.954,2.9515,2.9538,2.9473,2.9475,2.9509,2.9485,2.9555,2.9474,2.9509,2.9511,2.9516,2.9703,2.9745,2.9879,2.9637,2.964,2.9642,0,2.9629,2.9633,2.9711,2.9687,2.9696,2.9728,2.9735,2.9753,2.9744,2.9725,2.973,2.9683,2.9725,2.9651,2.971,2.9656,2.9668,2.9659,2.9663,2.9666,2.9585,2.9715,2.9919,2.9941,2.9669,2.9667,2.9665,0,2.9774,2.9798,2.9848,2.9848,2.982,2.9846,2.9836,2.9823,2.9833,2.9839,2.9846,2.9857,2.9864,2.9875,2.9835,2.9784,2.9901,2.9823,2.989,2.9891,2.9919,2.9918,3.0132,2.9922,2.9922,2.9922,2.9921,0,2.9924,2.9975,2.9913,2.9945,3.0002,2.9947,3.0006,2.9989,2.9979,3.0009,2.9947,2.9976,2.992,2.9945,2.9913,2.997,2.9973,2.9961,2.9953,2.9968,2.997,2.9976,2.9967,2.9927,2.9926,2.9925,2.9924,0,3.0095,3.0054,3.0106,3.0077,3.0071,3.0115,3.0091,3.0121,3.0095,3.0134,3.014,3.01,3.0127,3.0087,3.0109,3.0088,3.0167,3.0143,3.017,3.0164,3.0235,3.023,3.0462,3.0491,3.0261,3.0263,3.0265,0,3.0194,3.0232,3.0208,3.0223,3.0217,3.0241,3.0252,3.0201,3.0215,3.021,3.0242,3.0263,3.0277,3.0324,3.0299,3.0317,3.0295,3.0375,3.0297,3.0313,3.03,3.03,3.0305,3.0391,3.0394,3.0396,3.0398,0,3.0377,3.0357,3.0372,3.0383,3.0397,3.0403,3.0405,3.0422,3.0369,3.0388,3.0414,3.0426,3.0449,3.0473,3.0485,3.0477,3.0432,3.0423,3.044,3.0457,3.0473,3.0469,3.0217,3.0418,3.0416,3.0414,3.0413,3.0413,3.0518,3.055,3.0539,3.056,3.0557,3.0561,3.0589,3.0567,3.0588,3.0603,3.0572,3.0608,3.0602,3.0614,3.0612,3.0641,3.0607,3.063,3.0637,3.0644,3.0657,3.0467,3.0643,3.0642,3.0642,3.0641,3.0641,0,3.07,3.069,3.0711,3.0716,3.0734,3.0687,3.0688,3.0707,3.0739,3.0737,3.0753,3.0786,3.081,3.0788,3.0808,3.0836,3.0816,3.0843,3.0842,3.0842,3.0685,3.067,3.086,3.086,3.086,3.086,3.086,3.086,3.0798,3.0851,3.083,3.0883,3.0873,3.0906,3.0912,3.0917,3.0916,3.0955,3.0974,3.096,3.0951,3.0971,3.0992,3.0986,3.0998,3.1034,3.102,3.0874,3.0853,3.0832,3.0818,3.1036,3.1036,3.1176,3.1177,3.1178]},{"header":{"parameterUnit":"m.s-1","parameterCategory":1,"la1":30.2991,"la2":30.254,"lo1":-89.0895,"lo2":-89.0444,"dy":0.0017,"dx":0.0017,"nx":28,"ny":28,"refTime":"2024-08-08T03:00:00:Z","depth":0,"parameterNumber":3,"parameterNumberName":"V-component_of_WINDS"},"data":[0,0,0,0,0,0,0,0,0,0,0,0,0,0,0,0,0,0,0,0,0,0,0,0,0,0,0,0,0,0,0,0,0,0,0,0,0,0,0,0,0,0,0,0,0,0,0,0,0,0,0,0,0,0,0,0,0,0,-4.3249,-4.3249,0,-4.3272,-4.3273,-4.3273,-4.3315,-4.3316,-4.3317,-4.3317,-4.3337,-4.3337,-4.3337,0,0,0,0,0,0,0,0,0,0,0,0,0,-4.3237,-4.3237,-4.3249,-4.3249,-4.3249,-4.3272,-4.3273,-4.3273,-4.3315,-4.3316,-4.3317,-4.3318,-4.3337,-4.3337,-4.3337,0,0,0,0,0,0,0,0,0,0,0,0,0,-4.3249,-4.3237,-4.3249,-4.3273,-4.3276,-4.3272,-4.3273,-4.3273,-4.3315,-4.3316,-4.3317,-4.3318,-4.3337,-4.3337,-4.3337,-4.331,0,0,-4.3336,-4.3335,0,0,0,0,0,0,0,0,-4.3248,-4.3249,-4.3269,-4.3271,-4.3274,-4.3292,-4.3276,-4.3285,-4.3314,-4.33,-4.3317,-4.3319,-4.3321,-4.3322,-4.3324,-4.3311,-4.3312,-4.3336,-4.3335,-4.3335,-4.3335,0,0,0,0,0,0,0,-4.3247,-4.3249,-4.3258,-4.3269,-4.3272,-4.3282,-4.3285,-4.3278,-4.3303,-4.3301,-4.3304,-4.3307,-4.3322,-4.3324,-4.3324,-4.3312,-4.3336,-4.3335,-4.3335,-4.3335,-4.328,-4.3278,0,0,0,0,0,0,-4.3243,-4.3248,-4.3257,-4.3259,-4.3264,-4.3281,-4.3285,-4.3285,-4.3303,-4.3307,-4.3306,-4.3308,-4.3324,-4.3325,-4.3325,-4.3295,-4.3335,-4.3335,-4.3335,-4.3281,-4.3279,-4.3278,0,0,0,0,0,0,-4.3243,-4.3244,-4.3256,-4.3254,-4.3256,-4.328,-4.328,-4.3285,-4.3286,-4.3307,-4.3311,-4.3302,-4.3325,-4.3326,-4.3314,-4.3296,-4.3335,-4.3334,-4.3282,-4.328,-4.3279,-4.3235,0,0,0,0,0,0,-4.3243,-4.3244,-4.3234,-4.3254,-4.3256,-4.3245,-4.3279,-4.3284,-4.3286,-4.329,-4.3305,-4.3309,-4.3326,-4.3314,-4.3314,-4.3297,-4.3334,-4.3284,-4.3281,-4.3279,-4.3238,-4.3232,-4.3226,0,0,0,0,0,-4.3242,-4.322,-4.3234,-4.3234,-4.3246,-4.3244,-4.3246,-4.3267,-4.3285,-4.3275,-4.3288,-4.3308,-4.3299,-4.3313,-4.3312,-4.3295,-4.3285,-4.3282,-4.3279,-4.324,-4.3233,-4.3226,0,0,0,0,0,0,-4.3196,-4.3223,-4.3238,-4.3222,-4.3231,-4.3251,-4.324,-4.3259,-4.3261,-4.3265,-4.329,-4.3293,-4.3278,-4.3286,-4.33,-4.3271,-4.3295,-4.3292,-4.3266,-4.3259,-4.3253,-4.325,-4.3334,0,0,0,0,0,-4.3184,-4.3182,-4.3206,-4.3189,-4.3193,-4.3216,-4.3216,-4.3232,-4.3241,-4.3245,-4.3257,-4.3264,-4.3263,-4.3262,-4.3262,-4.324,-4.3243,-4.3228,-4.3222,-4.3217,-4.3214,-4.3202,-4.3195,-4.3269,-4.3269,-4.3269,0,0,-4.3159,-4.3174,-4.317,-4.318,-4.3189,-4.3185,-4.3218,-4.3213,-4.321,-4.3243,-4.3233,-4.3243,-4.3253,-4.3236,-4.3229,-4.3242,-4.3195,-4.3214,-4.321,-4.3209,-4.3199,-4.3192,-4.3185,-4.3267,-4.3267,-4.3267,0,0,-4.3111,-4.3123,-4.311,-4.3119,-4.3132,-4.3148,-4.3145,-4.3164,-4.3172,-4.3162,-4.3188,-4.3185,-4.3182,-4.3188,-4.3191,-4.3148,-4.3165,-4.3147,-4.3116,-4.3104,-4.3098,-4.3093,-4.3077,-4.3071,-4.3144,-4.3144,-4.3144,0,-4.3078,-4.3074,-4.3101,-4.3094,-4.3097,-4.313,-4.3117,-4.3124,-4.3136,-4.3137,-4.3152,-4.315,-4.3159,-4.3144,-4.3134,-4.3135,-4.3132,-4.3144,-4.3098,-4.3093,-4.3088,-4.3073,-4.3066,-4.3141,-4.3141,-4.3142,-4.3142,0,-4.3032,-4.303,-4.3018,-4.303,-4.3033,-4.3022,-4.3047,-4.3046,-4.3062,-4.3076,-4.3066,-4.3079,-4.3082,-4.308,-4.3095,-4.3067,-4.3075,-4.3093,-4.3118,-4.3079,-4.3064,-4.3058,-4.3138,-4.3139,-4.3139,-4.314,0,0,-4.2953,-4.2983,-4.2978,-4.2984,-4.3002,-4.3,-4.2992,-4.2997,-4.2995,-4.3003,-4.2995,-4.2994,-4.3012,-4.3015,-4.3032,-4.3022,-4.2986,-4.3042,-4.3042,-4.3029,-4.2954,-4.2938,-4.2931,-4.2999,-4.2998,-4.2997,-4.2953,0,-4.2908,-4.2896,-4.2921,-4.2902,-4.29,-4.2932,-4.2925,-4.2935,-4.2948,-4.2947,-4.2962,-4.2959,-4.2984,-4.2986,-4.2978,-4.2992,-4.297,-4.2996,-4.299,-4.299,-4.2985,-4.2924,-4.2907,-4.2864,-4.2947,-4.2946,-4.2946,0,-4.2853,-4.2859,-4.2841,-4.2862,-4.2862,-4.2855,-4.2861,-4.2861,-4.2873,-4.2883,-4.2888,-4.2908,-4.29,-4.2927,-4.2916,-4.2932,-4.2932,-4.2939,-4.2937,-4.2936,-4.2964,-4.2918,-4.2851,-4.2843,-4.2937,-4.2938,-4.2939,0,-4.2795,-4.28,-4.279,-4.2794,-4.2818,-4.2812,-4.2822,-4.2835,-4.2837,-4.2843,-4.2844,-4.2848,-4.285,-4.2853,-4.2874,-4.2891,-4.286,-4.2888,-4.2866,-4.2866,-4.2856,-4.2856,-4.2785,-4.286,-4.286,-4.286,-4.286,0,-4.274,-4.2727,-4.2764,-4.2758,-4.2744,-4.2773,-4.2759,-4.2771,-4.2783,-4.2779,-4.2808,-4.2803,-4.2832,-4.283,-4.2846,-4.2834,-4.2835,-4.2842,-4.2846,-4.2838,-4.2837,-4.2836,-4.2839,-4.2858,-4.2859,-4.2859,-4.2859,0,-4.2672,-4.2697,-4.2688,-4.2712,-4.2718,-4.2707,-4.2727,-4.2721,-4.2738,-4.2732,-4.2732,-4.2757,-4.2756,-4.2779,-4.2782,-4.2793,-4.2773,-4.2783,-4.2769,-4.2771,-4.2748,-4.2749,-4.2673,-4.2664,-4.2745,-4.2745,-4.2744,0,-4.2635,-4.2626,-4.265,-4.265,-4.2659,-4.2658,-4.2661,-4.2689,-4.269,-4.2704,-4.2696,-4.2699,-4.2702,-4.2699,-4.2716,-4.2719,-4.2728,-4.2702,-4.2729,-4.2721,-4.2726,-4.2725,-4.2724,-4.2695,-4.2694,-4.2693,-4.2692,0,-4.2565,-4.2578,-4.2581,-4.2589,-4.2591,-4.2598,-4.2607,-4.2605,-4.2636,-4.2636,-4.2636,-4.2639,-4.2643,-4.2644,-4.2651,-4.266,-4.268,-4.2684,-4.2679,-4.267,-4.2661,-4.2664,-4.2751,-4.2685,-4.2686,-4.2686,-4.2687,-4.2687,-4.251,-4.2503,-4.252,-4.2522,-4.2532,-4.254,-4.2536,-4.2553,-4.2555,-4.2561,-4.2578,-4.2576,-4.2589,-4.26,-4.2607,-4.2605,-4.2618,-4.261,-4.2608,-4.2605,-4.26,-4.2664,-4.2606,-4.2606,-4.2607,-4.2607,-4.2607,0,-4.244,-4.2452,-4.2455,-4.2467,-4.2469,-4.2492,-4.2503,-4.2502,-4.25,-4.2512,-4.2515,-4.2515,-4.2517,-4.2536,-4.2539,-4.2534,-4.2544,-4.2534,-4.2533,-4.2534,-4.2589,-4.2593,-4.2526,-4.2526,-4.2526,-4.2526,-4.2526,-4.2526,-4.2403,-4.2394,-4.2409,-4.2405,-4.2417,-4.2416,-4.2421,-4.2428,-4.2437,-4.2437,-4.2439,-4.2452,-4.2466,-4.2471,-4.2474,-4.2479,-4.2478,-4.2464,-4.2473,-4.2523,-4.2531,-4.2538,-4.2541,-4.2465,-4.2465,-4.2418,-4.2417,-4.2417]}]]